Wind_Speed
12 14 14 15 15 15 15 15 15 15 14 14 14 14 14 15 15 15 16 16 16 16 17 17 17 18 18 18 18 18 18 18 18 19 19 20 21 21 21 21 22 22 22
11 12 14 15 16 16 15 15 16 16 16 16 16 16 17 17 17 18 19 19 19 19 19 20 20 21 21 21 21 21 21 21 21 22 22 22 23 23 23 23 24 24 24
11 12 14 15 15 16 17 17 17 17 17 18 18 19 19 20 20 21 21 22 22 22 22 23 23 23 23 23 24 24 24 24 24 25 25 25 25 25 25 25 26 26 26
13 13 14 14 15 16 18 18 19 19 19 19 20 21 22 23 23 24 24 25 25 25 25 25 26 25 25 26 26 26 26 27 27 27 28 28 28 28 28 28 28 28 29
13 14 14 15 16 16 18 19 20 21 22 22 23 24 25 26 26 26 27 27 27 28 28 28 28 28 28 28 28 28 29 29 30 30 30 30 31 31 30 30 30 30 31
14 14 15 16 17 18 19 21 22 23 24 25 26 27 28 28 28 30 30 31 31 31 31 31 31 31 32 31 31 31 31 32 32 33 33 33 33 33 33 33 33 33 32
16 17 17 19 20 20 22 24 24 25 26 26 27 28 29 29 30 31 33 34 34 33 33 34 33 33 34 33 34 34 34 35 36 36 35 35 35 36 36 36 36 36 36
19 19 20 21 23 24 25 26 27 27 28 29 29 29 31 31 32 33 34 35 36 35 35 36 36 35 35 36 36 36 37 37 37 38 37 37 38 39 40 40 40 40 39
21 21 22 23 25 26 27 28 29 29 29 29 30 30 31 32 33 34 35 36 37 37 37 37 37 37 37 37 38 38 38 38 40 40 40 40 41 41 42 43 43 43 42
22 24 25 26 28 29 29 29 28 28 30 31 32 33 33 33 34 35 36 36 37 37 38 38 38 39 39 40 40 40 41 41 42 42 42 43 44 45 46 46 47 47 46
24 26 28 29 29 30 30 30 29 30 31 33 34 34 34 35 36 37 37 36 37 38 39 39 40 40 41 41 42 43 44 44 43 44 45 46 47 48 48 49 49 49 49
27 28 29 30 30 30 32 32 33 32 33 33 35 36 37 37 36 37 38 38 39 39 40 40 41 42 42 43 44 44 45 45 46 47 48 49 49 50 51 52 52 52 52
29 30 31 32 33 33 34 34 34 34 33 34 34 36 38 38 39 39 39 39 40 41 41 42 43 44 44 45 45 46 47 48 49 50 50 51 52 52 53 54 54 54 54
32 32 32 33 33 34 35 35 36 36 36 37 38 39 40 41 42 42 42 42 42 43 43 44 45 46 47 47 48 49 50 51 52 53 53 54 54 55 55 56 56 57 57
33 33 34 35 35 35 35 36 37 38 38 39 40 41 41 43 44 44 43 44 44 44 45 45 46 47 48 49 51 52 54 54 55 56 57 57 57 57 57 58 58 57 56
33 34 34 35 36 37 38 38 38 39 40 40 40 41 41 42 43 44 44 45 45 46 47 48 49 50 52 53 54 55 56 57 58 59 59 59 59 58 58 57 57 57 56
34 35 36 36 37 38 38 39 40 40 40 41 41 41 42 43 44 45 46 48 49 50 51 52 53 54 55 56 57 58 58 59 59 59 59 58 58 57 57 56 55 55 54
35 36 37 37 38 39 39 40 41 41 41 41 42 43 44 45 46 47 49 50 51 53 54 54 55 56 56 57 58 58 58 58 57 57 57 56 55 55 54 53 52 51 50
35 36 37 37 38 39 40 41 42 42 42 43 44 46 46 47 49 50 51 52 53 54 55 55 55 56 56 56 56 55 54 53 53 53 53 52 51 50 50 48 47 47 47
36 37 37 37 38 39 40 41 42 43 44 45 47 48 49 50 51 52 53 54 55 55 54 54 53 53 53 52 51 50 50 49 49 48 47 45 45 45 44 43 43 42 42
36 37 38 39 40 41 42 43 44 45 46 46 47 48 49 50 51 52 53 53 53 52 51 51 50 49 49 48 47 47 45 44 43 42 41 41 41 40 39 38 38 38 38
38 40 41 42 43 44 44 45 45 46 47 48 48 49 50 51 51 51 51 50 49 48 47 47 46 44 44 43 43 41 40 39 38 37 37 35 34 34 33 34 34 35 35
41 42 43 44 45 45 46 46 47 48 48 49 49 49 49 49 49 48 46 45 43 43 42 41 40 40 40 39 38 36 36 35 34 33 32 31 30 30 29 29 30 30 30
43 44 44 45 46 46 46 47 47 47 47 46 46 46 45 44 43 42 40 39 38 38 38 38 37 36 35 34 33 32 31 31 31 30 30 29 28 28 27 26 26 26 25
44 45 45 45 45 45 45 45 45 44 43 43 42 41 40 39 38 37 36 35 34 34 34 34 33 31 30 29 28 28 27 28 28 28 28 27 26 24 23 22 21 21 22
44 44 44 44 44 43 42 42 41 40 40 39 38 37 35 35 34 33 32 32 31 31 30 29 28 26 25 25 25 24 25 25 25 24 23 22 21 20 18 17 17 16 16
Wind_Direction
203 204 207 210 214 217 221 223 228 233 237 243 250 255 259 262 265 269 273 276 280 283 285 285 286 287 288 288 289 290 291 292 293 293 293 293 292 292 292 291 291 290 289
211 213 217 221 224 225 229 232 233 237 243 250 256 260 263 267 269 271 273 276 279 281 283 283 284 286 286 286 287 288 289 290 291 292 292 292 291 290 290 290 289 288 287
223 225 225 227 229 233 237 237 240 244 250 255 260 264 268 271 273 274 274 275 277 280 282 283 283 284 285 285 286 286 286 287 288 289 290 289 289 288 287 288 288 286 285
231 233 233 232 234 237 242 244 247 251 255 260 264 267 270 274 275 274 276 277 278 279 280 281 281 282 283 284 284 284 284 285 286 287 287 286 286 286 285 285 285 285 285
239 242 244 243 244 247 250 253 255 257 259 262 266 268 270 274 274 274 276 277 278 279 279 280 280 280 281 282 283 283 284 285 286 286 286 285 285 284 283 283 283 283 283
248 251 254 255 255 256 257 260 260 262 264 266 270 271 272 274 274 275 274 275 276 277 278 278 278 278 279 280 282 283 283 285 286 286 285 283 283 283 282 282 282 282 282
255 256 258 259 260 262 262 265 266 268 270 273 275 274 274 275 276 277 275 274 275 277 277 278 278 278 279 279 281 282 283 284 285 285 284 282 281 282 282 281 281 281 280
262 261 262 263 262 264 266 268 267 268 271 272 274 276 275 275 278 278 277 276 278 278 278 278 277 276 276 278 280 282 284 284 284 284 283 282 281 281 281 281 281 280 280
267 266 266 266 267 268 270 271 269 270 272 275 276 275 277 278 280 279 277 278 278 278 278 278 277 275 276 277 279 281 283 282 282 282 282 281 281 281 281 281 280 280 280
269 269 270 271 271 271 275 274 275 275 277 276 277 277 277 279 279 278 278 279 279 278 277 277 276 276 277 278 280 281 281 281 281 280 281 281 281 281 280 280 280 279 279
272 274 276 278 279 278 279 278 278 279 277 275 275 277 278 278 277 277 278 279 279 279 278 277 276 278 279 280 280 281 281 280 280 280 281 281 281 281 280 279 279 278 278
273 275 278 280 280 282 282 281 280 279 279 278 277 277 278 278 278 278 278 278 278 278 277 277 278 279 280 280 281 282 282 281 281 281 282 282 281 280 279 278 278 277 277
277 279 283 284 284 283 285 284 283 281 281 282 282 281 278 277 277 277 278 278 277 277 277 278 280 280 280 281 281 282 282 283 283 282 282 281 281 280 279 278 277 277 276
281 282 284 286 286 287 287 285 282 282 282 282 280 280 279 278 278 278 277 277 277 277 278 279 280 281 281 281 281 282 283 283 283 283 282 282 281 280 280 278 277 276 276
282 283 285 286 286 286 286 286 284 283 283 281 278 278 276 277 277 277 277 278 279 280 280 280 281 282 283 283 283 283 284 284 284 284 283 283 282 280 279 278 276 276 275
283 283 284 285 286 286 286 286 284 283 283 281 280 279 279 279 278 278 278 279 280 281 282 282 283 283 284 284 284 284 284 284 284 283 283 282 281 280 279 277 276 275 275
284 284 285 285 286 286 287 286 284 283 282 281 281 281 281 281 281 280 280 281 282 283 283 284 284 284 284 285 285 285 285 285 285 284 284 283 281 280 278 277 276 275 274
285 285 286 286 286 286 285 285 284 284 283 283 283 283 283 283 282 282 282 283 283 284 284 284 284 285 286 286 286 286 286 286 286 285 284 283 282 280 279 276 274 273 272
288 288 288 288 288 288 287 287 286 286 286 285 285 284 284 284 283 284 284 284 284 285 285 285 286 286 287 287 287 287 287 286 286 285 284 283 281 280 278 276 274 272 270
289 289 289 289 289 289 289 289 288 288 287 286 286 286 285 285 285 285 286 286 286 286 285 285 286 287 288 288 288 288 288 287 287 286 285 283 281 281 279 276 274 273 271
290 289 290 290 290 290 290 290 289 289 288 288 288 287 287 286 286 286 286 286 286 286 286 286 287 288 289 289 289 290 290 289 289 288 286 284 283 282 279 277 276 274 272
291 291 291 291 291 291 291 291 290 290 289 289 289 289 289 289 289 289 288 288 287 287 287 288 288 289 289 289 289 289 289 289 289 288 288 287 285 283 281 278 277 274 272
292 292 292 292 292 291 291 291 290 290 289 289 289 289 290 290 290 290 290 290 289 289 288 289 290 290 289 290 290 290 289 289 289 288 287 287 286 285 282 280 279 276 273
293 293 293 293 293 292 291 291 291 290 290 290 290 290 290 291 291 291 290 290 290 290 289 290 290 290 290 290 291 291 291 291 290 289 288 289 288 286 284 282 280 277 275
294 294 294 293 293 292 291 291 291 291 292 292 292 291 291 292 292 292 291 292 291 291 291 291 291 291 291 291 291 293 294 294 293 292 291 290 288 287 285 283 281 278 274
295 294 294 294 293 293 293 292 292 293 294 294 293 292 292 292 292 292 292 293 292 292 293 293 293 293 293 292 293 294 296 297 296 294 293 291 289 287 284 281 281 279 275
Height
5844 5846 5849 5851 5853 5855 5857 5858 5859 5860 5861 5862 5863 5863 5863 5863 5863 5863 5862 5862 5861 5860 5859 5858 5857 5856 5855 5854 5852 5851 5850 5848 5847 5846 5844 5842 5841 5839 5837 5835 5833 5832 5830
5842 5844 5846 5848 5850 5852 5853 5854 5855 5856 5857 5858 5858 5858 5858 5858 5858 5857 5857 5856 5856 5855 5854 5853 5852 5850 5849 5848 5846 5845 5844 5842 5841 5839 5838 5836 5834 5832 5830 5829 5827 5825 5823
5841 5842 5844 5845 5846 5848 5849 5850 5851 5852 5852 5853 5853 5853 5853 5853 5852 5852 5851 5850 5849 5849 5848 5847 5845 5844 5843 5841 5840 5838 5837 5835 5834 5832 5830 5828 5827 5825 5823 5821 5820 5818 5816
5838 5839 5840 5841 5842 5843 5844 5845 5846 5847 5847 5847 5847 5847 5846 5846 5845 5845 5844 5844 5843 5842 5841 5840 5838 5837 5835 5834 5832 5831 5829 5828 5826 5825 5823 5821 5819 5817 5815 5813 5812 5810 5808
5835 5836 5836 5837 5838 5839 5840 5840 5841 5841 5841 5840 5840 5839 5839 5838 5838 5837 5837 5836 5835 5834 5833 5832 5830 5829 5827 5826 5824 5823 5821 5819 5818 5816 5814 5812 5810 5808 5806 5805 5803 5801 5799
5832 5833 5833 5833 5834 5834 5835 5834 5834 5834 5833 5832 5832 5832 5831 5830 5830 5829 5827 5827 5826 5825 5824 5823 5821 5820 5819 5817 5816 5814 5812 5810 5808 5806 5804 5803 5801 5799 5797 5795 5793 5791 5790
5828 5828 5828 5829 5829 5829 5828 5828 5827 5826 5826 5825 5824 5824 5823 5822 5821 5820 5818 5817 5816 5815 5814 5813 5812 5811 5809 5808 5806 5805 5803 5800 5798 5796 5794 5792 5790 5788 5786 5784 5782 5780 5779
5822 5822 5822 5822 5822 5821 5821 5820 5819 5818 5818 5817 5816 5815 5814 5813 5812 5811 5809 5807 5806 5806 5805 5803 5802 5801 5799 5798 5796 5794 5792 5790 5787 5784 5783 5781 5779 5776 5774 5772 5770 5768 5767
5816 5815 5815 5814 5813 5812 5812 5811 5809 5809 5809 5808 5807 5806 5805 5804 5802 5800 5799 5798 5796 5795 5794 5793 5791 5790 5788 5786 5785 5783 5781 5778 5775 5773 5771 5768 5766 5764 5761 5759 5757 5755 5754
5808 5808 5807 5806 5804 5803 5802 5801 5800 5800 5799 5798 5797 5796 5795 5793 5792 5790 5789 5787 5786 5785 5783 5782 5780 5779 5777 5775 5773 5771 5768 5766 5763 5760 5758 5755 5753 5750 5747 5744 5742 5740 5739
5801 5800 5799 5798 5796 5795 5793 5792 5791 5790 5789 5788 5787 5785 5784 5783 5781 5780 5778 5777 5776 5774 5772 5770 5769 5767 5764 5762 5760 5757 5755 5752 5749 5747 5744 5742 5738 5735 5732 5729 5726 5724 5723
5793 5792 5790 5789 5787 5785 5784 5782 5780 5779 5779 5778 5776 5775 5773 5772 5771 5769 5768 5766 5764 5762 5760 5758 5756 5754 5751 5749 5746 5743 5740 5738 5735 5733 5730 5727 5723 5720 5717 5713 5710 5708 5706
5784 5783 5782 5780 5778 5776 5774 5772 5770 5769 5768 5767 5766 5764 5763 5761 5759 5758 5756 5754 5752 5750 5748 5746 5743 5740 5738 5735 5732 5729 5726 5723 5720 5717 5714 5710 5707 5703 5700 5697 5694 5691 5689
5774 5773 5773 5771 5769 5767 5765 5762 5760 5759 5758 5756 5755 5753 5751 5749 5747 5745 5743 5741 5739 5737 5734 5732 5729 5726 5723 5720 5717 5714 5710 5706 5703 5699 5696 5693 5689 5685 5682 5679 5676 5673 5671
5766 5765 5763 5761 5760 5758 5756 5754 5752 5750 5748 5746 5744 5741 5739 5736 5734 5731 5729 5728 5725 5723 5720 5718 5715 5711 5708 5705 5702 5698 5693 5689 5685 5681 5677 5674 5670 5667 5663 5659 5656 5654 5653
5757 5755 5753 5752 5749 5748 5746 5743 5741 5739 5736 5733 5731 5729 5726 5723 5720 5718 5716 5713 5711 5708 5705 5702 5699 5695 5692 5688 5685 5681 5676 5671 5666 5662 5658 5654 5650 5647 5643 5640 5637 5635 5634
5747 5745 5743 5741 5739 5737 5734 5732 5729 5726 5723 5720 5718 5715 5712 5709 5707 5704 5701 5698 5696 5693 5689 5686 5682 5678 5674 5670 5666 5662 5657 5652 5647 5642 5638 5634 5630 5626 5624 5621 5619 5616 5615
5737 5735 5732 5730 5727 5725 5722 5719 5716 5713 5711 5707 5704 5701 5698 5695 5692 5689 5686 5683 5680 5676 5672 5668 5664 5660 5656 5652 5647 5643 5638 5633 5628 5623 5618 5614 5610 5607 5605 5602 5600 5599 5598
5726 5724 5721 5718 5715 5712 5710 5706 5703 5700 5697 5694 5690 5687 5683 5680 5677 5674 5670 5667 5663 5659 5654 5650 5646 5642 5637 5633 5629 5624 5619 5614 5609 5604 5600 5596 5592 5589 5586 5584 5583 5582 5581
5716 5713 5710 5707 5704 5700 5697 5693 5690 5687 5683 5679 5676 5672 5668 5665 5661 5657 5653 5649 5645 5641 5637 5633 5628 5624 5620 5615 5611 5606 5601 5597 5592 5587 5583 5579 5576 5573 5570 5569 5567 5566 5566
5704 5701 5698 5695 5691 5688 5684 5680 5676 5672 5668 5664 5660 5656 5652 5648 5644 5639 5635 5631 5627 5623 5619 5615 5611 5607 5603 5599 5594 5590 5585 5581 5576 5572 5568 5565 5562 5559 5557 5555 5554 5553 5553
5692 5689 5685 5681 5678 5674 5670 5665 5661 5657 5653 5649 5645 5640 5635 5631 5626 5622 5618 5613 5609 5606 5602 5599 5595 5592 5588 5584 5580 5575 5571 5567 5563 5559 5556 5553 5549 5547 5545 5544 5542 5542 5541
5679 5675 5671 5667 5663 5659 5655 5651 5646 5642 5638 5634 5629 5624 5620 5615 5610 5606 5602 5598 5594 5591 5588 5584 5581 5578 5574 5570 5566 5562 5559 5555 5552 5548 5545 5542 5539 5537 5535 5534 5532 5531 5531
5665 5661 5657 5653 5648 5644 5640 5635 5631 5626 5622 5618 5613 5609 5605 5600 5596 5592 5588 5585 5582 5578 5575 5572 5568 5565 5562 5558 5555 5551 5547 5544 5541 5538 5535 5532 5530 5528 5526 5525 5523 5522 5522
5651 5647 5642 5638 5633 5629 5624 5620 5616 5612 5607 5603 5599 5595 5591 5588 5584 5580 5577 5574 5570 5567 5563 5560 5557 5554 5551 5548 5545 5542 5538 5535 5532 5529 5526 5524 5522 5520 5518 5517 5516 5515 5514
5636 5632 5628 5623 5619 5614 5610 5606 5602 5598 5594 5590 5587 5583 5579 5576 5573 5569 5566 5563 5560 5556 5553 5550 5547 5545 5542 5539 5536 5533 5530 5527 5524 5521 5518 5516 5514 5512 5511 5510 5509 5508 5508